Rbgn^[z[y[W
メイン
   新天体発見情報
     Comet P/2015 HG16 = 2023 W2 (PANSTARRS)
投稿するにはまず登録を

スレッド表示 | 新しいものから 前のトピック | 次のトピック | 下へ
投稿者 スレッド
佐藤裕久
投稿日時: 2024-2-3 17:44
モデレータ
登録日: 2005-6-12
居住地: 日本
投稿: 2676
オンライン
Comet P/2015 HG16 = 2023 W2 (PANSTARRS)

MPEC 2024-B134によると、J. Maiknerは、ペンシルベニア州 New Ringgoldにある0.30-m f/3.8 
Riccardi-Honders 望遠鏡のCCD画像からP/2015 HG16 (CBET 4270参照)を検出した(外観は不明)。
2023年12月6日、MPEC 2023-X98は、2023年11月17日、19日と20日のMaiknerの9つの観測を発表し
た。11月17日の観測は残差が大きく、本物ではないか、別の天体の可能性がある。
M. Rudenko (小惑星センター)は、MPEC 2024-B134に現れる3組の一夜の追加観測(2023年12月7日、
8日、16日)が、MPCの "isolated tracklet file "で見つかったと書いている。
NK 4189 (= ICQ's 2023 CometHandbook)の中野主一氏の予報に対し、Delta(T)は、+0.47 dayで
あった。
MPEC 2020-S188のRudenkoの予報に対する修正値は、Delta(T) = +0.58 dayであった
彗星年表2022の佐藤裕久の参考軌道に対する修正値は、Delta(T) = +0.56 dayであった。

検出位置は次のとおり、

     2023 UT             R.A. (2000) Decl.       Mag.   Observer
     Nov. 19.14985    2 29 02.36   + 7 37 34.4   20.4   Maikner
          19.17300    2 29 01.35   + 7 37 36.1   20.2     "
          19.19616    2 29 00.34   + 7 37 38.1   20.3     "

MPCの連結軌道要素、位置推算表は次のとおり、

Orbital elements:
    P/2015 HG16 (PANSTARRS)                                                     
Epoch 2023 Sept. 13.0 TT = JDT 2460200.5                                        
T 2024 Oct. 16.72401 TT                                 Rudenko                 
q   3.1177546            (2000.0)            P               Q                  
n   0.09361687     Peri.   46.89129     -0.20832075     -0.93918178             
a   4.8035979      Node    57.09182     +0.77607546     -0.32861325             
e   0.3509543      Incl.   18.97777     +0.59523890     +0.09975427             
P  10.5                                                                         
>From 67 observations 2015 Jan. 14-2023 Dec. 16, mean residual 0".7.             
                                                                                
Ephemeris:
Date    TT    R. A. (2000) Decl.     Delta      r    Elong.  Phase   m1
2023 12 27    02 12 24.6 +09 26 29   2.9377  3.5264   119.4    14.1  20.3
...
2024 01 11    02 13 07.0 +10 42 02   3.1077  3.4905   104.8    15.8  20.4
...
2024 01 19    02 15 15.7 +11 28 41   3.2054  3.4717    97.4    16.3  20.4
...
2024 01 25    02 17 37.8 +12 06 08   3.2801  3.4579    92.0    16.5  20.5
2024 01 26    02 18 05.1 +12 12 33   3.2926  3.4557    91.2    16.5  20.5
2024 01 27    02 18 33.4 +12 19 02   3.3051  3.4534    90.3    16.6  20.5
...
2024 02 02    02 21 44.0 +12 58 52   3.3801  3.4398    85.1    16.6  20.5
...
2024 02 10    02 26 50.7 +13 54 20   3.4792  3.4221    78.5    16.4  20.6
...
2024 02 25    02 38 52.8 +15 43 45   3.6572  3.3899    66.7    15.6  20.6

(MPEC 2024-B134、CBET 5337)

スレッド表示 | 新しいものから 前のトピック | 次のトピック | トップ

投稿するにはまず登録を
 
© 1999 Tsutomu Seki.